Hourly Data Report for September 30, 2017

All times are specified in Local Standard Time (LST). Add 1 hour to adjust for Daylight Saving Time where and when it is observed.

SATURNA ISLAND CS
BRITISH COLUMBIA

48°47'02.067" N
123°02'41.082" W
24.40 m
1017101
71473
WEZ

Download Data

Hourly Data (September 2017)
Hourly Data Report for September 30, 2017
Temp Definition
°C
Dew Point Temp Definition
°C
Rel Hum Definition
%
Wind Dir Definition
10's deg

Wind Spd Definition
km/h
Visibility Definition
km
Stn Press Definition
kPa
Hmdx Definition


Wind Chill Definition


Weather Definition


TIME
00:00 12.3 9.3 82 22 7   101.41     LegendNANA
01:00 12.1 9.6 85 20 13   101.38     LegendNANA
02:00 12.1 9.8 86 21 9   101.40     LegendNANA
03:00 11.6 10.0 90 25 9   101.45     LegendNANA
04:00 11.4 10.1 92 21 23   101.38     LegendNANA
05:00 10.4 9.2 92 21 23   101.37     LegendNANA
06:00 10.7 9.7 93 22 14   101.40     LegendNANA
07:00 11.1 10.2 94 21 21   101.40     LegendNANA
08:00 12.3 11.2 93 22 16   101.43     LegendNANA
09:00 13.8 12.5 92 21 21   101.46     LegendNANA
10:00 13.1 11.2 88 20 18   101.49     LegendNANA
11:00 14.2 11.7 85 20 18   101.49     LegendNANA
12:00 12.6 10.4 87 21 18   101.47     LegendNANA
13:00 12.5 10.8 89 18 17   101.43     LegendNANA
14:00 12.6 11.1 91 20 14   101.43     LegendNANA
15:00 12.4 10.8 90 21 17   101.40     LegendNANA
16:00 11.9 10.5 91 21 11   101.40     LegendNANA
17:00 12.1 10.7 92 20 10   101.40     LegendNANA
18:00 11.7 10.4 92 22 14   101.41     LegendNANA
19:00 11.5 10.3 92 23 7   101.44     LegendNANA
20:00 11.1 9.9 93 23 10   101.45     LegendNANA
21:00 11.0 10.0 93 24 4   101.48     LegendNANA
22:00 11.1 10.0 94 29 2   101.51     LegendNANA
23:00 10.5 9.5 94 31 1   101.53     LegendNANA

Notes on Data Quality.

Legend

  • E = Estimated
  • M = Missing
  • NA = Not Available
  • ‡ = Partner data that is not subject to review by the National Climate Archives
Date modified: